Change the Weather History Date:

Saturday, August 31, 2013

  Actual Average Record
Temperature  
Mean Temperature 84 °F 74 °F  
Max Temperature 97 °F 87 °F 109 °F (2000)
Min Temperature 70 °F 61 °F 57 °F (2001)
Degree Days  
Heating Degree Days 0 0  
Month to date heating degree days 0 0  
Since 1 June heating degree days 12 14  
Since 1 July heating degree days 3 3  
Cooling Degree Days 19 9  
Month to date cooling degree days 381 377  
Year to date cooling degree days 1228 1183  
Since 1 June cooling degree days 1092 1083  
Growing Degree Days 33 (Base 50)    
Moisture  
Dew Point 71 °F    
Average Humidity 69    
Maximum Humidity 100    
Minimum Humidity 38    
Precipitation  
Precipitation T in 0.17 in 1.35 in (2003)
Month to date precipitation 4.10 4.28  
Year to date precipitation 21.22 24.54  
Sea Level Pressure  
Sea Level Pressure 29.81 in    
Wind  
Wind Speed 3 mph (ENE)    
Max Wind Speed 12 mph    
Max Gust Speed 15 mph    
Visibility 10 miles    
Events Rain    
T = Trace of Precipitation, MM = Missing Value Source: NWS Daily Summary

Daily Weather History Graph

Daily Weather History Graph

Search for Another Location

Airport or City:

Trip Planner

Search our weather history database for the weather conditions in past years. The results will help you decide how hot, cold, wet, or windy it might be!

Date:

Astronomy

Aug. 31, 2013 Rise Set
Actual Time 6:54 AM CDT 7:58 PM CDT
Civil Twilight 6:27 AM CDT 8:25 PM CDT
Nautical Twilight 5:54 AM CDT 8:58 PM CDT
Astronomical Twilight 5:20 AM CDT 9:32 PM CDT
Moon 2:25 AM CDT (8/31) 4:56 PM CDT (8/31)
Length of Visible Light 13h 58m
Length of Day
13h 03m
Waning Crescent, 21% of the Moon is Illuminated
Aug 31
Waning Crescent
Sep 5
New
Sep 12
First Quarter
Sep 19
Full
Sep 26
Last Quarter

Hourly Weather History & Observations

Time (CDT) Temp. Heat Index Dew Point Humidity Pressure Visibility Wind Dir Wind Speed Gust Speed Precip Events Conditions
12:52 AM 73.9 °F - 69.1 °F 85% 29.82 in 10.0 mi Calm Calm - N/A   Clear
1:52 AM 73.9 °F - 70.0 °F 87% 29.81 in 10.0 mi Calm Calm - N/A   Clear
2:52 AM 73.0 °F - 69.1 °F 87% 29.81 in 10.0 mi Calm Calm - N/A   Clear
3:52 AM 71.1 °F - 69.1 °F 93% 29.80 in 10.0 mi SSW 3.5 mph - N/A   Clear
4:52 AM 72.0 °F - 69.1 °F 91% 29.81 in 10.0 mi West 3.5 mph - 0.00 in   Clear
5:52 AM 70.0 °F - 69.1 °F 97% 29.82 in 10.0 mi SW 3.5 mph - N/A   Clear
6:52 AM 73.9 °F - 73.0 °F 97% 29.86 in 8.0 mi Variable 3.5 mph - N/A   Mostly Cloudy
7:52 AM 75.9 °F - 73.9 °F 94% 29.84 in 6.0 mi NE 3.5 mph - 0.00 in Rain Light Rain
8:52 AM 79.0 °F - 75.0 °F 88% 29.84 in 9.0 mi ENE 9.2 mph - 0.00 in   Partly Cloudy
9:52 AM 80.1 °F 85.1 °F 75.0 °F 85% 29.83 in 10.0 mi ENE 5.8 mph - N/A   Scattered Clouds
10:52 AM 82.0 °F 87.4 °F 73.0 °F 74% 29.83 in 10.0 mi ENE 4.6 mph - 0.00 in   Clear
11:52 AM 88.0 °F 95.6 °F 73.0 °F 61% 29.83 in 10.0 mi ENE 6.9 mph - N/A   Clear
12:52 PM 91.0 °F 97.6 °F 71.1 °F 52% 29.82 in 10.0 mi Variable 6.9 mph - N/A   Clear
1:52 PM 91.9 °F 99.5 °F 72.0 °F 52% 29.82 in 10.0 mi Calm Calm - N/A   Clear
2:52 PM 95.0 °F 100.7 °F 69.1 °F 43% 29.81 in 10.0 mi NE 6.9 mph - N/A   Clear
3:52 PM 96.1 °F 99.9 °F 66.9 °F 38% 29.79 in 10.0 mi Variable 3.5 mph - N/A   Clear
4:52 PM 96.1 °F 101.0 °F 68.0 °F 40% 29.78 in 10.0 mi East 6.9 mph - N/A   Clear
5:52 PM 95.0 °F 100.7 °F 69.1 °F 43% 29.77 in 10.0 mi ENE 3.5 mph - N/A   Clear
6:52 PM 93.0 °F 100.1 °F 71.1 °F 49% 29.76 in 10.0 mi NE 5.8 mph - N/A   Clear
7:52 PM 88.0 °F 93.8 °F 71.1 °F 57% 29.76 in 10.0 mi NE 3.5 mph - N/A   Clear
8:52 PM 82.0 °F 86.7 °F 72.0 °F 71% 29.77 in 10.0 mi Calm Calm - N/A   Clear
9:52 PM 82.0 °F 86.7 °F 72.0 °F 71% 29.78 in 10.0 mi Calm Calm - N/A   Clear
10:52 PM 77.0 °F - 73.0 °F 88% 29.78 in 10.0 mi Calm Calm - N/A   Clear
11:52 PM 75.0 °F - 72.0 °F 90% 29.78 in 10.0 mi Calm Calm - N/A   Clear